Weather History for KMEH - November, 2013

Change the Weather History Date:

Tuesday, November 19, 2013

  Actual Average Record
Temperature  
Mean Temperature 38 °F -  
Max Temperature 44 °F 40 °F 55 °F (2003)
Min Temperature 33 °F 25 °F 6 °F (2000)
Degree Days  
Heating Degree Days 26    
Moisture  
Dew Point 37 °F    
Average Humidity 89    
Maximum Humidity 96    
Minimum Humidity 71    
Precipitation  
Precipitation 0.42 in - - ()
Sea Level Pressure  
Sea Level Pressure 29.76 in    
Wind  
Wind Speed 1 mph (West)    
Max Wind Speed 7 mph    
Max Gust Speed -    
Visibility 6 miles    
Events Fog , Rain , Snow    
Averages and records for this station are not official NWS values.
T = Trace of Precipitation, MM = Missing Value Source: NWS Daily Summary

Daily Weather History Graph

Daily Weather History Graph

Search for Another Location

Airport or City:

Trip Planner

Search our weather history database for the weather conditions in past years. The results will help you decide how hot, cold, wet, or windy it might be!

Date:

Astronomy

Nov. 19, 2013 Rise Set
Actual Time 6:58 AM PST 4:19 PM PST
Civil Twilight 6:26 AM PST 4:51 PM PST
Nautical Twilight 5:49 AM PST 5:27 PM PST
Astronomical Twilight 5:14 AM PST 6:03 PM PST
Moon 6:13 PM PST (11/19) 8:42 AM PST (11/19)
Length of Visible Light 10h 25m
Length of Day
9h 20m
Waning Gibbous, 95% of the Moon is Illuminated
Nov 19
Waning Gibbous
Nov 25
Last Quarter
Dec 2
New
Dec 9
First Quarter
Dec 17
Full

Hourly Weather History & Observations

Time (PST) Temp. Windchill Dew Point Humidity Pressure Visibility Wind Dir Wind Speed Gust Speed Precip Events Conditions
12:56 AM 37.9 °F - 35.1 °F 89% 29.78 in 10.0 mi Calm Calm - N/A   Overcast
1:56 AM 37.0 °F - 34.0 °F 89% 29.78 in 10.0 mi Calm Calm - N/A   Overcast
2:56 AM 41.0 °F 39.0 °F 36.0 °F 82% 29.76 in 10.0 mi Variable 3.5 mph - N/A   Clear
3:56 AM 39.0 °F - 36.0 °F 89% 29.76 in 10.0 mi Calm Calm - N/A   Overcast
4:56 AM 41.0 °F 39.0 °F 35.1 °F 79% 29.76 in 10.0 mi Variable 3.5 mph - N/A   Overcast
5:56 AM 43.0 °F - 35.1 °F 74% 29.76 in 10.0 mi Calm Calm - N/A   Overcast
6:56 AM 42.1 °F - 34.0 °F 73% 29.77 in 10.0 mi Calm Calm - N/A   Overcast
7:56 AM 44.1 °F 41.5 °F 35.1 °F 71% 29.76 in 10.0 mi Variable 4.6 mph - 0.00 in   Overcast
8:56 AM 43.0 °F - 35.1 °F 74% 29.77 in 10.0 mi Calm Calm - N/A   Unknown
9:48 AM 41.0 °F 39.0 °F 37.0 °F 86% 29.74 in 2.5 mi Variable 3.5 mph - 0.04 in Rain Rain
9:56 AM 42.1 °F - 37.9 °F 85% 29.77 in 6.0 mi Calm Calm - 0.06 in Rain Light Rain
10:56 AM 41.0 °F - 37.9 °F 89% 29.76 in 4.0 mi Calm Calm - 0.01 in Rain Rain
11:56 AM 39.9 °F - 37.9 °F 93% 29.75 in 10.0 mi Calm Calm - 0.07 in   Overcast
12:56 PM 41.0 °F - 37.9 °F 89% 29.73 in 10.0 mi Calm Calm - N/A   Overcast
1:56 PM 42.1 °F - 39.0 °F 89% 29.73 in 10.0 mi Calm Calm - 0.00 in Rain Light Rain
2:20 PM 41.0 °F - 37.9 °F 89% 29.70 in 1.8 mi Calm Calm - 0.02 in Rain Rain
2:34 PM 41.0 °F - 37.9 °F 89% 29.71 in 2.5 mi Calm Calm - 0.05 in Rain Light Rain
2:45 PM 42.1 °F - 39.0 °F 89% 29.72 in 1.5 mi Calm Calm - 0.09 in Rain Rain
2:56 PM 43.0 °F - 41.0 °F 93% 29.74 in 3.0 mi Calm Calm - 0.12 in Rain Light Rain
3:05 PM 43.0 °F 39.5 °F 39.9 °F 89% 29.72 in 9.0 mi West 5.8 mph - 0.00 in Rain Light Rain
3:56 PM 43.0 °F - 41.0 °F 93% 29.76 in 10.0 mi Calm Calm - 0.02 in   Overcast
4:02 PM 43.0 °F - 41.0 °F 93% 29.73 in 10.0 mi Calm Calm - N/A   Overcast
4:56 PM 42.1 °F - 39.9 °F 92% 29.76 in 4.0 mi Calm Calm - 0.04 in Rain Light Rain
5:01 PM 42.1 °F 39.2 °F 39.9 °F 92% 29.74 in 2.5 mi Variable 4.6 mph - 0.00 in Rain Rain
5:04 PM 43.0 °F - 39.9 °F 89% 29.73 in 3.0 mi Calm Calm - 0.02 in Rain Rain
5:22 PM 43.0 °F - 39.9 °F 89% 29.74 in 5.0 mi Calm Calm - 0.04 in Rain Light Rain
5:27 PM 42.1 °F - 39.9 °F 92% 29.74 in 2.5 mi Calm Calm - 0.04 in Rain Rain
5:34 PM 42.1 °F - 39.9 °F 92% 29.74 in 2.0 mi Calm Calm - 0.07 in Rain Light Rain
5:36 PM 42.1 °F - 39.9 °F 92% 29.74 in 3.0 mi Calm Calm - 0.07 in Rain Light Rain
5:56 PM 41.0 °F - 39.9 °F 96% 29.76 in 4.0 mi Calm Calm - 0.09 in Rain Light Rain
6:04 PM 42.1 °F - 39.9 °F 92% 29.74 in 7.0 mi Calm Calm - 0.00 in   Overcast
6:28 PM 41.0 °F - 39.0 °F 93% 29.74 in 1.5 mi Calm Calm - 0.00 in   Overcast
6:39 PM 41.0 °F - 39.0 °F 93% 29.74 in 0.8 mi Calm Calm - 0.00 in   Overcast
6:48 PM 41.0 °F - 39.0 °F 93% 29.74 in 1.2 mi Calm Calm - 0.00 in   Overcast
6:56 PM 41.0 °F - 39.0 °F 93% 29.76 in 1.0 mi Calm Calm - 0.00 in   Overcast
7:04 PM 41.0 °F - 39.0 °F 93% 29.74 in 0.8 mi Calm Calm - N/A   Overcast
7:09 PM 42.1 °F - 39.0 °F 89% 29.74 in 2.5 mi Calm Calm - N/A   Overcast
7:16 PM 42.1 °F - 39.9 °F 92% 29.74 in 8.0 mi Calm Calm - N/A   Overcast
7:48 PM 41.0 °F - 39.0 °F 93% 29.74 in 2.0 mi Calm Calm - 0.00 in   Overcast
7:56 PM 41.0 °F 39.0 °F 37.9 °F 89% 29.77 in 0.8 mi Variable 3.5 mph - 0.01 in Rain Light Rain
8:05 PM 39.0 °F 36.8 °F 37.0 °F 93% 29.75 in 0.5 mi Variable 3.5 mph - 0.00 in Fog , Rain Light Rain
8:16 PM 39.0 °F 36.8 °F 36.0 °F 89% 29.76 in 2.0 mi Variable 3.5 mph - 0.00 in Rain Light Rain
8:24 PM 37.9 °F 35.5 °F 36.0 °F 93% 29.76 in 10.0 mi Variable 3.5 mph - 0.00 in   Overcast
8:56 PM 37.0 °F 34.5 °F 35.1 °F 93% 29.81 in 10.0 mi Variable 3.5 mph - 0.00 in   Overcast
9:56 PM 36.0 °F 32.1 °F 33.1 °F 89% 29.82 in 10.0 mi Variable 4.6 mph - N/A   Overcast
10:26 PM 35.1 °F 32.2 °F 32.0 °F 89% 29.79 in 10.0 mi Variable 3.5 mph - N/A   Overcast
10:51 PM 33.8 °F 27.7 °F 30.2 °F 87% 29.79 in 10.0 mi Variable 6.9 mph - 0.00 in Rain Light Rain
10:56 PM 34.0 °F 28.8 °F 30.9 °F 89% 29.83 in 10.0 mi Variable 5.8 mph - 0.00 in   Overcast
11:00 PM - - - N/A% - - North - - N/A   Unknown
11:17 PM 33.1 °F 27.7 °F 30.0 °F 89% 29.81 in 6.0 mi West 5.8 mph - 0.00 in Snow Light Snow
11:56 PM 33.1 °F 28.7 °F 30.0 °F 89% 29.86 in 8.0 mi Variable 4.6 mph - 0.00 in   Overcast